Location: Hastingleigh
(51.1500°N, 1.0000°E)
Time: 22:18:16
(UTC+00:00)

Daily predictions for brighter satellites

Satellite Brightness Start Highest point End
(mag) Time Altitude Azimuth Time Altitude Azimuth Time Altitude Azimuth
Cosmos 1844 Rocket 3.2 20:52:43 10° NNW 20:58:18 54° NE 21:03:52 10° SE
USA 245 4.1 20:54:23 10° SSE 20:59:04 88° WSW 21:04:49 10° NNW
CARTOSAT-1 3.7 20:55:17 10° SSE 20:59:34 69° ENE 21:03:53 10° N
Cosmos 1025 Rocket 4.3 20:58:00 10° SE 21:01:34 24° E 21:05:07 10° NNE
CENTAUR R/B 2.6 20:57:11 10° SW 21:03:12 78° SE 21:10:28 10° NE
Cosmos 1908 3.8 21:00:09 10° N 21:03:53 43° ENE 21:07:36 10° SSE
Cosmos 1726 3.0 21:00:35 10° NNW 21:04:06 47° W 21:07:36 10° S
SL-8 R/B 3.8 21:02:08 10° W 21:06:53 61° S 21:11:36 10° ESE
Cosmos 1975 Rocket 3.4 21:03:09 10° SSE 21:07:19 47° E 21:11:33 10° NNE
Cosmos 2263 Rocket 3.4 21:05:27 10° NW 21:10:37 36° WSW 21:15:45 10° S
Cosmos 1707 2.9 21:10:04 10° SSW 21:13:56 76° WNW 21:17:51 10° N
Cosmos 1340 4.4 21:11:50 10° SE 21:14:22 17° E 21:16:54 10° NE
CZ-2C R/B 3.9 21:10:14 10° NNE 21:15:01 84° WNW 21:19:48 10° SSW
Cosmos 1953 2.4 21:11:45 10° N 21:15:49 66° ENE 21:19:51 10° SSE
USA 267 3.7 21:13:49 10° E 21:20:16 64° NNE 21:26:44 10° WNW
Cosmos 2100 Rocket 4.1 21:15:17 10° N 21:21:42 79° E 21:28:03 10° SSE
Cosmos 1461 2.9 21:17:36 10° NW 21:21:56 80° NE 21:25:52 11° SE
ARIANE 5 R/B 2.9 21:21:03 10° S 21:25:28 71° WSW 21:29:59 10° NNW
GEOS 3 Rocket 4.2 21:20:32 10° ESE 21:25:46 56° NE 21:30:59 10° NW
Cosmos 2333 Rocket 3.5 21:22:01 10° SSE 21:26:20 22° ESE 21:30:40 10° NE
In-Cosmos 22 4.1 21:21:20 10° S 21:26:38 86° E 21:31:57 10° NNE
SL-14 R/B 4.5 21:26:32 11° SSE 21:29:44 28° E 21:33:12 10° NNE
Cosmos 405 3.9 21:30:14 10° N 21:33:26 34° ENE 21:36:09 13° SE
Aureole 1 Rocket 4.0 21:32:42 10° NNW 21:38:08 89° WSW 21:44:46 12° SSE
Cosmos 1844 3.7 21:33:17 10° NNW 21:38:54 83° ENE 21:43:57 13° SSE
Cosmos 1452 Rocket 3.6 21:33:37 10° SSW 21:38:54 90° ESE 21:44:14 10° NNE
ATLAS CENTAUR R/B 2.0 21:35:58 10° NW 21:40:08 54° NE 21:44:30 10° ESE
Cosmos 2173 Rocket 4.2 21:36:36 10° NNW 21:43:00 82° W 21:49:22 10° S
Cosmos 2219 Rocket 3.3 21:41:32 12° SSE 21:45:36 26° ESE 21:50:14 10° NE
Cosmos 2016 Rocket 4.0 21:39:29 10° N 21:45:37 75° ENE 21:51:13 13° SSE
Cosmos 1544 Rocket 3.6 21:43:05 10° N 21:47:35 89° NE 21:51:34 13° S
Cosmos 1900 4.3 21:43:45 10° NW 21:48:42 84° NE 21:52:55 14° SE
SPOT 5 3.4 21:44:08 10° S 21:49:16 61° WSW 21:54:12 10° NNW
Cosmos 1455 Rocket 3.7 21:48:21 10° NNW 21:52:41 52° W 21:57:00 10° S
Cosmos 1626 2.1 21:50:10 12° S 21:53:36 73° E 21:57:18 10° NNE
KORONAS-FOTON 4.2 21:52:12 10° SSW 21:55:58 61° WNW 21:59:44 10° N
Cosmos 1725 Rocket 4.0 21:50:03 10° N 21:56:16 77° E 22:01:41 14° SSE
Meteor 2-10 Rocket 4.3 21:53:04 10° N 21:57:55 39° ENE 22:01:54 14° SE
H-2A R/B 3.4 21:54:57 10° NNE 21:59:03 65° ESE 22:02:40 13° S
Cosmos 2237 Rocket 4.2 21:58:40 10° ESE 21:59:37 10° E 22:00:34 10° E
BREEZE-M DEB (TANK) 3.2 21:59:14 10° SW 22:02:00 49° SSE 22:08:51 10° E
NOSS 3-2 (C) 4.0 21:57:35 10° WSW 22:03:21 64° NW 22:10:09 10° NE
SL-16 R/B 2.9 21:57:56 10° SW 22:03:31 57° NW 22:09:08 10° NNE
Lacrosse 5 3.6 22:00:14 10° W 22:03:53 20° SW 22:07:23 11° S
Genesis I 4.3 22:02:15 10° WSW 22:06:03 49° NW 22:09:55 10° NE
Terra 2.3 22:01:47 12° S 22:06:06 58° W 22:10:49 10° NNW
FALCON 9 DEB 3.7 22:03:09 10° SW 22:06:18 35° SSE 22:09:27 10° E
Cosmos 2360 Rocket 2.2 22:00:42 10° SSW 22:06:20 81° ESE 22:12:01 10° NNE
Cosmos 2322 Rocket 2.7 22:01:20 10° SW 22:07:00 66° WNW 22:12:43 10° NNE
Cosmos 1331 Rocket 4.0 22:01:51 10° SSW 22:07:04 75° ESE 22:12:22 10° NNE
Cosmos 1802 Rocket 4.3 22:01:01 10° NNW 22:07:14 69° W 22:13:09 12° S
ERS-1 Rocket 4.0 22:05:00 10° SSW 22:09:44 41° W 22:14:32 10° NNW
ATLAS 3B R/B 3.0 22:06:24 10° S 22:12:30 43° ESE 22:18:49 10° NE
Cosmos 1455 3.9 22:13:55 10° NNE 22:17:01 22° ENE 22:19:32 13° ESE
COSMOS 2428 3.4 22:13:36 16° SSE 22:17:37 37° ESE 22:22:51 10° NE
Cosmos 1867 4.0 22:12:47 10° NW 22:18:15 60° NE 22:23:22 11° ESE
Cosmos 1674 4.2 22:17:29 10° SW 22:20:52 32° WNW 22:24:15 10° N
BREEZE-M DEB (TANK) 2.6 22:18:12 10° SW 22:20:54 41° SSE 22:26:53 10° ENE
Cosmos 2322 3.9 22:16:36 12° S 22:21:40 54° ESE 22:27:11 10° NE
Cosmos 1536 Rocket 3.6 22:18:34 15° S 22:22:15 81° E 22:26:44 10° NNE
Cosmos 1300 2.8 22:20:19 10° NNW 22:24:08 73° W 22:26:42 20° S
Cosmos 1302 Rocket 4.2 22:20:04 15° S 22:24:23 56° ESE 22:29:32 10° NNE
DNEPR-1 R/B 3.6 22:23:11 10° NW 22:27:23 67° SW 22:30:14 21° SSE
USA 215 3.4 22:21:25 10° ENE 22:27:49 53° SE 22:34:10 10° SW
Cosmos 2278 Rocket 2.8 22:22:25 10° NNW 22:27:57 50° NE 22:32:55 13° SE
Cosmos 1346 Rocket 3.6 22:27:17 21° SSE 22:29:24 36° E 22:33:07 10° NNE
Cosmos 389 Rocket 2.8 22:31:36 10° N 22:34:57 53° ENE 22:36:46 24° SE
Meteor 2-5 Rocket 3.7 22:30:33 15° S 22:35:15 84° E 22:40:54 10° NNE
Cosmos 1025 Rocket 4.2 22:34:48 10° SW 22:38:58 41° WNW 22:43:07 10° N
Lacrosse 5 rocket 1.2 22:35:35 10° SW 22:39:06 48° SE 22:42:34 10° ENE
Cosmos 1844 Rocket 3.9 22:37:00 10° NW 22:41:58 32° WSW 22:46:06 14° SSW
FALCON 9 DEB 4.4 22:47:10 20° ESE 22:47:10 20° ESE 22:48:48 10° E
Cosmos 2228 3.0 22:41:52 10° N 22:46:18 87° E 22:49:02 23° S
Spot 4 3.8 22:44:45 21° SSE 22:47:57 84° ENE 22:52:46 10° NNW
Cosmos 1340 3.6 22:46:16 12° SW 22:49:36 44° WNW 22:53:15 10° N
Cosmos 1486 Rocket 4.0 22:47:43 10° NNW 22:52:59 86° WSW 22:56:26 22° SSE
CENTAUR R/B 4.1 22:48:25 10° W 22:54:33 42° NNW 23:01:48 10° NE
FALCON 9 DEB 4.2 22:55:40 23° ESE 22:55:40 23° ESE 22:57:35 10° E
Cosmos 2333 4.4 22:54:51 10° SW 23:00:37 74° WNW 23:06:22 10° NNE
COBE Rocket 4.0 22:59:36 22° SSE 23:02:55 82° ENE 23:07:55 10° N
USA 267 3.3 22:57:24 13° SE 23:03:17 69° SW 23:09:51 10° WNW
GEOS 3 Rocket 4.3 23:00:45 21° S 23:03:55 41° WSW 23:08:59 10° NW
Cosmos 2058 Rocket 3.5 22:59:31 10° N 23:03:56 55° ENE 23:06:34 23° SSE
Cosmos 1354 Rocket 4.3 22:59:44 10° NNW 23:05:04 66° ENE 23:08:54 19° SE
Cosmos 1980 4.4 23:05:28 22° SSE 23:08:30 37° ESE 23:13:42 10° NE
Cosmos 2333 Rocket 2.4 23:04:18 10° SW 23:10:02 75° WNW 23:15:48 10° NNE
Cosmos 968 Rocket 3.9 23:05:37 10° NNW 23:10:32 49° WSW 23:13:35 22° S
Cosmos 1992 Rocket 4.1 23:11:12 22° S 23:14:31 64° ESE 23:19:42 10° NNE
Cosmos 1943 Rocket 3.8 23:11:54 10° NNW 23:16:44 30° NE 23:21:32 10° ESE
Cosmos 1726 Rocket 3.6 23:12:19 10° NNW 23:16:48 73° W 23:19:18 25° S
Cosmos 1513 Rocket 4.4 23:11:22 10° N 23:17:29 83° E 23:21:36 22° SSE
ATLAS CENTAUR R/B 2.8 23:15:09 10° WNW 23:18:50 27° WSW 23:20:38 21° SSW
Meteor 1-24 Rocket 4.4 23:22:55 13° SW 23:27:34 48° WNW 23:32:54 10° N
Cosmos 1184 Rocket 3.0 23:27:00 35° SSE 23:28:04 56° E 23:31:17 10° NNE
Cosmos 2219 Rocket 2.6 23:23:30 10° SW 23:29:09 64° NW 23:34:49 10° NNE
Cosmos 1606 Rocket 4.3 23:26:04 10° NNW 23:30:19 43° W 23:32:50 22° SSW
ALOS 2 2.7 23:28:20 26° S 23:30:42 66° WSW 23:35:05 10° NNW
MTI 4.0 23:28:53 10° NNE 23:31:52 51° E 23:32:42 37° SSE
NOSS 0 Rocket 4.0 23:30:01 20° SSW 23:34:23 68° ESE 23:40:35 10° NE
Cosmos 1892 Rocket 3.6 23:32:13 25° SSW 23:34:44 83° W 23:39:14 10° N
SL-16 R/B 3.7 23:34:20 16° SE 23:37:03 23° ESE 23:41:21 10° NE
SJ 16-02 2.8 23:34:55 10° N 23:38:53 32° ENE 23:42:46 10° ESE
SAR-Lupe-2 3.7 23:35:35 10° NNE 23:39:09 61° ESE 23:40:35 32° S
Cosmos 2237 Rocket 2.3 23:39:03 23° S 23:42:29 61° ESE 23:48:02 10° NE
Iridium 2 4.5 23:40:37 22° SW 23:42:41 43° W 23:46:17 10° N
FALCON 9 DEB 3.2 23:39:37 10° W 23:43:02 76° NNW 23:46:27 10° ENE
Meteor 1-21 Rocket 4.2 23:45:48 24° S 23:49:21 82° ESE 23:55:06 10° NNE
Cosmos 2360 Rocket 4.2 23:46:20 10° W 23:51:01 26° NW 23:55:42 10° NNE
Cosmos 1464 Rocket 4.2 23:44:56 10° NNW 23:51:12 65° W 23:55:24 22° S
Nimbus 7 Rocket 4.5 23:45:24 10° NNE 23:51:28 81° ESE 23:55:33 22° SSW
Cosmos 2369 Rocket 3.9 23:46:26 10° NNW 23:51:30 31° NE 23:56:32 10° ESE
Cosmos 1503 Rocket 4.5 23:46:39 10° NNW 23:51:51 50° WSW 23:54:50 24° S
Cosmos 192 4.4 23:49:09 26° S 23:51:53 64° ESE 23:56:47 10° NNE
PSLV R/B 4.3 23:48:11 10° NNE 23:52:15 40° E 23:54:21 24° SSE
Cosmos 1455 3.2 23:49:10 10° NNW 23:52:42 35° W 23:54:24 23° SW
USA 32 4.2 23:48:22 10° N 23:53:37 66° E 23:56:56 22° SSE
